Orbital Elements at Epoch 2459200.5 (2020-Dec-17.0) TDB
Reference: JPL 14 (heliocentric ecliptic J2000)
Element | Value | Uncertainty (1-sigma) | Units |
e | .1944448458483072 | 5.3132e-08 | |
a | 2.398923389379203 | 8.3309e-09 | au |
q | 1.932465100729466 | 1.2637e-07 | au |
i | 1.902394248212801 | 6.8505e-06 | deg |
node | 1.652799787556407 | 0.00012062 | deg |
peri | 48.63845337289879 | 0.00012274 | deg |
M | 1.132848946495011 | 1.6826e-05 | deg |
tp | 2459196.229364562994 (2020-Dec-12.72936456) | 6.3439e-05 | TDB |
period | 1357.134825502606 3.72 | 7.0695e-06 1.936e-08 | d yr |
n | .2652647277448476 | 1.3818e-09 | deg/d |
Q | 2.865381678028942 | 9.9508e-09 | au |
|
| | Orbit Determination Parameters
Additional Information
|